Flag for Canada Weather past 2 weeks in Calgary, Alberta, Canada

Now
54 °F

Mostly cloudy.


Feels Like: 51 °F
Forecast: 48 / 58 °F
Wind: 8 mph from East

Location: Calgary International

Current Time: Aug 21, 2014 at 7:10:14 PM

Latest Report: Aug 21, 2014 at 6:00 PM


Visibility: 20 mi

Pressure: 30.25 "Hg

Humidity: 72%

Dew point: 45 °F

Location of CalgaryLocation

Historic Weather in Calgary — Graph

°F

Calgary temperature yesterday

Maximum temperature yesterday: 57 °F (at 12:00 AM)
Minimum temperature yesterday: 50 °F (at 9:00 PM)
Average temperature yesterday: 55 °F

Past Weeks' High & Low Weather Summary

 TemperatureHumidityPressure
High86 °F (Aug 12, 4:00 PM)94% (Aug 15, 4:00 AM)30.26 "Hg (Aug 15, 4:00 AM)
Low46 °F (Aug 9, 7:00 AM)28% (Aug 11, 4:00 PM)29.69 "Hg (Aug 19, 4:00 PM)
Average64 °F68%30.01 "Hg
* Reported Aug 6 5:00 PM — Aug 21 5:00 PM, Calgary, Weather by CustomWeather, © 2014

Note: Actual official high and low records may vary slightly from our data, if they occured in-between our weather recording intervals... More about our weather records

Advertising

Calgary weather history for previous 24 hours

 ConditionsComfort  
Time TempWeatherWind HumidityBarometerVisibility
5:00 PM
Aug 21
55 °FMostly cloudy.7 mph63%30.24 "Hg20 mi
4:00 PM55 °FMostly cloudy.8 mph63%30.24 "Hg20 mi
3:00 PM54 °FMostly cloudy.6 mph72%30.24 "Hg20 mi
2:00 PM54 °FSprinkles. Mostly cloudy.8 mph72%30.24 "Hg20 mi
1:45 PM54 °FCloudy.8 mph77%30.24 "Hg20 mi
1:00 PM54 °FSprinkles. Cloudy.9 mph72%30.24 "Hg20 mi
12:00 PM52 °FSprinkles. Cloudy.8 mph82%30.24 "Hg20 mi
11:00 AM52 °FMostly cloudy.8 mph82%30.24 "Hg20 mi
10:00 AM50 °FMostly cloudy.9 mph88%30.23 "Hg20 mi
9:00 AM48 °FMostly cloudy.7 mph87%30.23 "Hg20 mi
8:00 AM48 °FMostly cloudy.9 mph87%30.21 "Hg20 mi
7:00 AM48 °FPassing clouds.7 mph87%30.20 "Hg20 mi
6:00 AM48 °FPassing clouds.8 mph87%30.18 "Hg15 mi
5:00 AM50 °FPassing clouds.9 mph82%30.17 "Hg15 mi
4:00 AM50 °FPassing clouds.9 mph88%30.16 "Hg10 mi
3:00 AM52 °FPassing clouds.7 mph82%30.14 "Hg15 mi
2:00 AM52 °FPartly cloudy.2 mph88%30.13 "Hg15 mi
1:00 AM52 °FPassing clouds.3 mph88%30.11 "Hg10 mi
12:00 AM52 °FOvercast.7 mph88%30.11 "Hg8 mi
11:00 PM
Aug 20
52 °FLight rain. Fog.3 mph88%30.11 "Hg6 mi
10:00 PM52 °FLight rain. Fog.6 mph88%30.10 "Hg4 mi
9:00 PM50 °FSprinkles. Fog.6 mph94%30.09 "Hg4 mi
8:04 PM54 °FRain showers. Fog.15 mph88%30.05 "Hg5 mi
8:00 PM54 °FSprinkles. Fog.7 mph94%30.05 "Hg5 mi
7:00 PM54 °FSprinkles. Fog.6 mph88%30.04 "Hg5 mi
Weather by CustomWeather, © 2014

See weather overviewHow to use our weather pages